Tracking 17557 objects as of 8-February-2016
HD Live streaming from Space Station
objects crossing your sky now

OPS 6182 (DMSP 5D-1 F2)

Track OPS 6182 (DMSP 5D-1 F2) now!
10-day predictions
OPS 6182 (DMSP 5D-1 F2) is classified as:


NORAD ID: 10820
Int'l Code: 1978-042A
Perigee: 774.9 km
Apogee: 789.9 km
Inclination: 98.6 °
Period: 100.4 minutes
Semi major axis: 7153 km
RCS: 4.1055 m2 (large)
Launch date: May 1, 1978
Source: United States (US)
Launch site: AIR FORCE WESTERN TEST RANGE (AFWTR)
Your satellite tracking list
Your tracking list is empty





NASA's NSSDC Master Catalog

Two Line Element Set (TLE):
1 10820U 78042A   16038.54994490  .00000231  00000-0  96708-4 0  9994
2 10820  98.5579 224.9177 0010455  74.3765 285.8573 14.3494685097261
Source of the keplerian elements: AFSPC

N2YO: 1055